When you browse on this site, cookies collect data to enhance your experience and personalize the content and advertising you see.
Visit our Privacy Policy to learn more. By continuing to use the site, you agree to this use of cookies and data.
  • In Austria
  • List of Countries
  • For 7 days
  • Water Temperature
  • Satellite Maps
  • Weather Map
  • News
  • Weather Widgets
  • user-avatar
    Login

    Hourly Weather Kerns

    Today, 11 December, Tuesday

    Time Temperature Precipitation Wind Pressure Humidity
    00:00 +27°C° 0.5 mm 2 mps 755 mmHg 97%
    01:00 +27°C° 0.5 mm 2 mps 755 mmHg 97%
    02:00 +27°C° 0.5 mm 2 mps 755 mmHg 97%
    03:00 +27°C° 0.5 mm 2 mps 755 mmHg 97%
    04:00 +26°C° 0 mm 2 mps 755 mmHg 97%
    05:00 +27°C° 0.5 mm 2 mps 755 mmHg 96%
    06:00 +27°C° 0.5 mm 2 mps 756 mmHg 95%
    07:00 +28°C° 0.5 mm 2 mps 756 mmHg 94%
    08:00 +29°C° 0.4 mm 2 mps 756 mmHg 89%
    09:00 +30°C° 0.4 mm 2 mps 756 mmHg 83%
    10:00 +31°C° 0 mm 3 mps 757 mmHg 79%
    11:00 +33°C° 0.4 mm 3 mps 756 mmHg 78%
    12:00 +33°C° 0.4 mm 3 mps 756 mmHg 77%
    13:00 +34°C° 0.4 mm 3 mps 756 mmHg 75%
    14:00 +33°C° 0.1 mm 3 mps 755 mmHg 76%
    15:00 +33°C° 0.1 mm 3 mps 755 mmHg 76%
    16:00 +33°C° 0.1 mm 3 mps 755 mmHg 77%
    17:00 +31°C° 0 mm 3 mps 755 mmHg 82%
    18:00 +30°C° 0 mm 2 mps 755 mmHg 87%
    19:00 +28°C° 0 mm 2 mps 755 mmHg 92%
    20:00 +28°C° 0 mm 2 mps 756 mmHg 94%
    21:00 +28°C° 0 mm 1 mps 756 mmHg 95%
    22:00 +27°C° 0 mm 1 mps 757 mmHg 96%
    23:00 +27°C° 0 mm 1 mps 756 mmHg 96%

    Tomorrow, 12 December, Wednesday

    Time Temperature Precipitation Wind Pressure Humidity
    00:00 +27°C° 0 mm 1 mps 756 mmHg 96%
    01:00 +27°C° 0 mm 2 mps 756 mmHg 97%
    02:00 +27°C° 0 mm 2 mps 755 mmHg 97%
    03:00 +27°C° 0 mm 2 mps 755 mmHg 97%
    04:00 +27°C° 0 mm 2 mps 755 mmHg 97%
    05:00 +27°C° 0 mm 2 mps 755 mmHg 96%
    06:00 +28°C° 0 mm 2 mps 756 mmHg 94%
    07:00 +28°C° 0 mm 2 mps 756 mmHg 92%
    08:00 +30°C° 0.1 mm 2 mps 756 mmHg 85%
    09:00 +31°C° 0.1 mm 2 mps 756 mmHg 78%
    10:00 +34°C° 0.1 mm 2 mps 757 mmHg 71%
    11:00 +34°C° 0.4 mm 2 mps 756 mmHg 72%
    12:00 +34°C° 0.4 mm 2 mps 756 mmHg 73%
    13:00 +35°C° 0.4 mm 2 mps 755 mmHg 74%
    14:00 +34°C° 0.4 mm 2 mps 755 mmHg 75%
    15:00 +34°C° 0.4 mm 2 mps 754 mmHg 76%
    16:00 +34°C° 0.4 mm 2 mps 754 mmHg 78%
    17:00 +32°C° 0.2 mm 2 mps 754 mmHg 83%
    18:00 +30°C° 0.2 mm 2 mps 754 mmHg 88%
    19:00 +29°C° 0.2 mm 1 mps 755 mmHg 93%
    20:00 +29°C° 0.3 mm 1 mps 755 mmHg 94%
    21:00 +28°C° 0.3 mm 1 mps 756 mmHg 95%
    22:00 +28°C° 0.3 mm 1 mps 756 mmHg 97%
    23:00 +28°C° 0.1 mm 1 mps 755 mmHg 97%

    Day after tomorrow, 13 December, Thursday

    Time Temperature Precipitation Wind Pressure Humidity
    00:00 +28°C° 0.1 mm 1 mps 755 mmHg 97%
    01:00 +28°C° 0.1 mm 1 mps 755 mmHg 97%
    02:00 +28°C° 0 mm 1 mps 755 mmHg 97%
    03:00 +26°C° 0 mm 0 mps 754 mmHg 97%
    04:00 +25°C° 0 mm 0 mps 754 mmHg 97%
    05:00 +26°C° 0 mm 0 mps 755 mmHg 95%
    06:00 +26°C° 0 mm 0 mps 755 mmHg 94%
    07:00 +26°C° 0 mm 0 mps 756 mmHg 92%
    08:00 +30°C° 0.1 mm 1 mps 756 mmHg 87%
    09:00 +31°C° 0.1 mm 1 mps 756 mmHg 81%
    10:00 +32°C° 0.1 mm 2 mps 756 mmHg 76%
    11:00 +32°C° 1 mm 2 mps 756 mmHg 78%
    12:00 +32°C° 1 mm 2 mps 755 mmHg 80%
    13:00 +32°C° 1 mm 2 mps 755 mmHg 82%
    14:00 +31°C° 1.5 mm 2 mps 755 mmHg 83%
    15:00 +31°C° 1.5 mm 1 mps 754 mmHg 84%
    16:00 +31°C° 1.5 mm 1 mps 754 mmHg 86%
    17:00 +30°C° 0.3 mm 1 mps 754 mmHg 88%
    18:00 +29°C° 0.3 mm 1 mps 754 mmHg 91%
    19:00 +28°C° 0.3 mm 1 mps 755 mmHg 93%
    20:00 +28°C° 0 mm 1 mps 755 mmHg 93%
    21:00 +28°C° 0 mm 1 mps 755 mmHg 94%
    22:00 +27°C° 0 mm 2 mps 755 mmHg 94%
    23:00 +27°C° 0 mm 2 mps 754 mmHg 94%

    14 December, Friday

    Time Temperature Precipitation Wind Pressure Humidity
    00:00 +27°C° 0 mm 3 mps 753 mmHg 94%
    01:00 +27°C° 0 mm 3 mps 753 mmHg 95%
    02:00 +27°C° 0 mm 3 mps 753 mmHg 94%
    03:00 +27°C° 0 mm 3 mps 753 mmHg 94%
    04:00 +27°C° 0 mm 2 mps 753 mmHg 94%
    05:00 +27°C° 0 mm 2 mps 753 mmHg 93%
    06:00 +28°C° 0 mm 2 mps 753 mmHg 91%
    07:00 +28°C° 0 mm 1 mps 753 mmHg 90%
    08:00 +30°C° 0.2 mm 2 mps 753 mmHg 83%
    09:00 +31°C° 0.2 mm 3 mps 754 mmHg 77%
    10:00 +34°C° 0.2 mm 3 mps 754 mmHg 70%
    11:00 +34°C° 0.8 mm 4 mps 753 mmHg 72%
    12:00 +34°C° 0.8 mm 4 mps 753 mmHg 74%
    13:00 +34°C° 0.8 mm 5 mps 752 mmHg 76%
    14:00 +33°C° 0.5 mm 4 mps 752 mmHg 79%
    15:00 +33°C° 0.5 mm 4 mps 751 mmHg 82%
    16:00 +32°C° 0.5 mm 4 mps 751 mmHg 85%
    17:00 +30°C° 0.5 mm 4 mps 752 mmHg 88%
    18:00 +29°C° 0.5 mm 4 mps 752 mmHg 91%
    19:00 +29°C° 0.5 mm 4 mps 753 mmHg 94%
    20:00 +28°C° 0.7 mm 4 mps 753 mmHg 95%
    21:00 +28°C° 0.7 mm 4 mps 753 mmHg 96%
    22:00 +28°C° 0.7 mm 4 mps 753 mmHg 96%
    23:00 +28°C° 1.3 mm 5 mps 753 mmHg 96%

    15 December, Saturday

    Time Temperature Precipitation Wind Pressure Humidity
    00:00 +28°C° 1.3 mm 6 mps 752 mmHg 96%
    01:00 +28°C° 1.3 mm 6 mps 752 mmHg 96%
    02:00 +28°C° 1.3 mm 7 mps 751 mmHg 96%
    03:00 +28°C° 1.3 mm 7 mps 751 mmHg 96%
    04:00 +28°C° 1.3 mm 7 mps 750 mmHg 96%
    05:00 +28°C° 1.4 mm 8 mps 750 mmHg 95%
    06:00 +28°C° 1.4 mm 8 mps 750 mmHg 95%
    07:00 +28°C° 1.4 mm 9 mps 750 mmHg 94%
    08:00 +29°C° 0.8 mm 9 mps 750 mmHg 93%
    09:00 +29°C° 0.8 mm 9 mps 750 mmHg 92%
    10:00 +29°C° 0.8 mm 9 mps 750 mmHg 91%
    11:00 +31°C° 0.7 mm 9 mps 750 mmHg 88%
    12:00 +31°C° 0.7 mm 9 mps 749 mmHg 85%
    13:00 +31°C° 0.7 mm 8 mps 749 mmHg 82%
    14:00 +31°C° 0.2 mm 8 mps 749 mmHg 81%
    15:00 +30°C° 0.2 mm 7 mps 748 mmHg 80%
    16:00 +30°C° 0.2 mm 7 mps 748 mmHg 79%
    17:00 +30°C° 0 mm 6 mps 749 mmHg 79%
    18:00 +30°C° 0 mm 6 mps 750 mmHg 80%
    19:00 +29°C° 0 mm 5 mps 750 mmHg 80%
    20:00 +29°C° 0 mm 5 mps 751 mmHg 80%
    21:00 +29°C° 0 mm 5 mps 751 mmHg 80%
    22:00 +29°C° 0 mm 5 mps 752 mmHg 80%
    23:00 +29°C° 0 mm 4 mps 752 mmHg 79%

    16 December, Sunday

    Time Temperature Precipitation Wind Pressure Humidity
    00:00 +29°C° 0 mm 4 mps 752 mmHg 78%
    01:00 +28°C° 0 mm 4 mps 752 mmHg 77%
    02:00 +28°C° 0 mm 4 mps 752 mmHg 78%
    03:00 +28°C° 0 mm 4 mps 752 mmHg 79%
    04:00 +27°C° 0 mm 4 mps 752 mmHg 80%
    05:00 +27°C° 0 mm 3 mps 753 mmHg 79%
    06:00 +27°C° 0 mm 3 mps 753 mmHg 79%
    07:00 +27°C° 0 mm 3 mps 754 mmHg 78%
    08:00 +29°C° 0 mm 3 mps 754 mmHg 69%
    09:00 +31°C° 0 mm 3 mps 754 mmHg 60%
    10:00 +34°C° 0 mm 3 mps 754 mmHg 50%
    11:00 +35°C° 0 mm 3 mps 754 mmHg 45%
    12:00 +36°C° 0 mm 3 mps 753 mmHg 39%
    13:00 +37°C° 0 mm 3 mps 753 mmHg 34%
    14:00 +37°C° 0 mm 3 mps 753 mmHg 36%
    15:00 +37°C° 0 mm 3 mps 752 mmHg 39%
    16:00 +36°C° 0 mm 3 mps 752 mmHg 41%
    17:00 +34°C° 0 mm 3 mps 752 mmHg 47%
    18:00 +31°C° 0 mm 3 mps 753 mmHg 52%
    19:00 +29°C° 0 mm 3 mps 753 mmHg 57%
    20:00 +28°C° 0 mm 3 mps 753 mmHg 57%
    21:00 +28°C° 0 mm 3 mps 754 mmHg 56%
    22:00 +27°C° 0 mm 4 mps 754 mmHg 55%
    23:00 +27°C° 0 mm 3 mps 754 mmHg 57%
    Show more